Location: Boniswil
(47.3173°N, 8.1896°E)
Time: 05:19:43
(UTC+00:00)

Daily predictions for brighter satellites

Satellite Brightness Start Highest point End
(mag) Time Altitude Azimuth Time Altitude Azimuth Time Altitude Azimuth
Cosmos 2297 Rocket 4.2 02:56:31 23° ENE 02:56:31 23° ENE 02:58:57 10° NE
Cosmos 2227 Rocket 4.1 02:59:46 25° ENE 02:59:46 25° ENE 03:02:37 10° NE
CZ-4C R/B 3.5 03:21:04 45° NNE 03:21:55 47° NE 03:29:34 10° ESE
Lacrosse 5 3.9 03:25:40 24° ESE 03:25:40 24° ESE 03:27:38 10° ESE
SL-16 R/B 3.1 03:30:49 46° E 03:30:49 46° E 03:35:28 10° SE
Cosmos 2237 Rocket 4.4 03:48:54 14° S 03:48:54 14° S 03:49:36 10° S
ATLAS 5 CENTAUR R/B 3.0 03:55:56 36° NE 03:55:56 36° NE 03:58:53 10° NE
Cosmos 407 Rocket 4.2 04:02:20 43° NNE 04:03:37 53° ENE 04:08:51 10° SE
Aureole 1 Rocket 3.8 04:05:33 64° S 04:05:33 64° S 04:11:01 10° SSE
Cosmos 614 Rocket 4.4 04:05:52 50° NNE 04:06:38 56° ENE 04:11:38 10° SE
Cosmos 1140 Rocket 4.4 04:10:58 28° N 04:13:16 44° ENE 04:18:15 10° SE
Cosmos 1484 Rocket 3.9 04:11:22 10° NNE 04:15:13 44° E 04:18:58 10° S
Nadezhda 4 Rocket 4.3 04:10:45 10° N 04:16:59 66° ENE 04:23:07 10° SSE
USA 234 3.2 04:10:41 10° NE 04:17:10 70° NNW 04:18:21 58° W
CZ-2C R/B 4.4 04:16:26 10° N 04:17:13 15° N 04:17:13 15° N
Okean O Rocket 3.4 04:28:59 10° NNE 04:32:55 31° E 04:36:50 10° SSE
COSMO-SKYMED 1 2.5 04:31:26 10° SSE 04:35:46 84° ENE 04:36:55 49° N
Cosmos 2242 Rocket 3.7 04:34:53 27° N 04:37:20 75° E 04:41:51 10° SSE
Cosmos 2297 Rocket 2.6 04:38:23 43° NW 04:38:23 43° NW 04:43:16 10° NNE
Cosmos 1812 4.4 04:43:20 22° SSW 04:43:20 22° SSW 04:44:49 10° S
Cosmos 2227 Rocket 2.5 04:41:39 44° NW 04:41:39 44° NW 04:46:57 10° NNE
Cosmos 1607 3.9 04:40:14 44° WSW 04:42:01 61° NW 04:48:09 10° NNE
Cosmos 1624 Rocket 4.3 04:38:15 10° S 04:43:31 69° ESE 04:48:50 10° NNE
CZ-4B R/B 4.4 04:39:33 10° NNE 04:44:52 44° E 04:50:14 10° S
Cosmos 1470 Rocket 3.4 04:41:27 10° SSW 04:45:55 79° W 04:50:26 10° N
Cosmos 1461 3.5 04:44:46 36° N 04:46:07 52° NE 04:50:21 10° SE
Cosmos 1862 Rocket 3.7 04:48:11 53° WSW 04:48:11 53° WSW 04:52:14 10° S
Cosmos 2056 Rocket 3.6 04:43:12 10° SSW 04:48:16 72° ESE 04:53:23 10° NNE
STARLINK 1050 4.2 04:48:50 35° NNE 04:48:50 35° NNE 04:51:44 10° E
Cosmos 1703 Rocket 4.1 04:45:42 10° N 04:50:08 60° ENE 04:54:31 10° SSE
STARLINK 1055 4.1 04:51:30 36° NNE 04:51:30 36° NNE 04:54:33 10° E
Cosmos 2034 Rocket 3.9 04:45:40 10° SSW 04:51:57 74° W 04:58:21 10° N
Cosmos 2219 4.3 04:53:19 25° NNW 04:53:19 25° NNW 04:56:59 10° N
Cosmos 1190 Rocket 3.9 04:49:57 33° NNW 04:52:20 74° WSW 04:57:32 10° SSE
STARLINK 1022 4.0 04:52:59 37° NNE 04:52:59 37° NNE 04:56:07 10° E
Cosmos 676 Rocket 4.2 04:49:21 19° NNW 04:53:11 72° ENE 04:58:27 10° SSE
USA 116 4.0 04:51:51 10° SSE 04:56:03 86° ENE 05:00:43 11° NNW
Cosmos 2084 Rocket 3.6 04:54:39 38° NNW 04:56:16 74° NE 05:00:40 10° SE
STARLINK 1042 3.9 04:56:18 38° N 04:56:25 38° NNE 04:59:36 10° E
FENGYUN 3A 3.9 04:51:50 10° NNE 04:57:16 72° ESE 05:02:37 10° S
STARLINK 1056 3.9 04:58:39 38° N 04:58:52 39° NNE 05:02:02 10° E
Helios 1A Rocket 3.7 04:55:51 10° NNE 04:59:50 53° E 05:03:46 10° S
STARLINK 1054 3.8 05:01:12 38° N 05:01:32 39° NNE 05:04:43 10° E
Cosmos 724 4.4 04:56:08 10° SSW 05:02:12 80° ESE 05:08:10 10° NE
Cosmos 1943 3.7 04:58:10 14° NNW 05:03:01 58° ENE 05:08:33 10° SE
STARLINK 1062 3.8 05:03:34 38° N 05:04:00 40° NNE 05:07:12 10° E
Lacrosse 5 3.1 05:04:54 24° WSW 05:05:04 24° SW 05:09:04 10° S
Cosmos 1954 Rocket 4.0 05:01:23 16° NNW 05:05:36 85° ENE 05:10:54 10° SSE
STARLINK 1053 3.8 05:06:34 37° NNW 05:07:09 42° NNE 05:10:22 10° E
Cosmos 1869 Rocket 4.5 05:04:41 10° SSE 05:08:51 50° E 05:13:03 10° NNE
STARLINK 1061 3.8 05:08:35 37° NNW 05:09:15 42° NNE 05:12:28 10° E
CZ-4C R/B 3.1 05:06:17 24° NW 05:10:50 59° WSW 05:18:52 10° SSE
Meteor 2-11 Rocket 4.5 05:05:57 10° SSW 05:11:53 54° WNW 05:17:53 10° N
STARLINK 1067 3.8 05:11:08 36° NNW 05:11:55 43° NNE 05:15:09 10° E
Okean 1 3.9 05:08:01 10° N 05:11:57 56° ENE 05:15:51 10° SSE
Meteor 1-27 Rocket 4.2 05:08:16 19° NNW 05:12:01 39° W 05:17:26 10° SSW
STARLINK 1044 3.4 05:13:23 39° N 05:13:46 42° NNE 05:16:32 10° E
SL-16 R/B 3.0 05:12:45 28° W 05:13:51 30° WSW 05:18:41 10° SSW
Starlink Launch 2 leader 3.0 05:14:06 44° NNE 05:14:06 44° NNE 05:16:27 10° E
STARLINK 1058 3.7 05:13:36 35° NNW 05:14:30 44° NNE 05:17:44 10° E
Cosmos 2195 Rocket 4.5 05:09:43 10° N 05:16:06 86° W 05:22:26 10° S
STARLINK 1043 3.7 05:16:19 34° NNW 05:17:19 46° NNE 05:20:36 10° E
Starlink Launch 2 trailer 2.8 05:17:39 47° NNE 05:17:45 47° NNE 05:20:09 10° E
STARLINK 1065 3.7 05:18:34 33° NNW 05:19:41 47° NNE 05:22:57 10° E
Cosmos 1092 Rocket 3.9 05:13:42 10° NNW 05:19:51 68° W 05:25:56 10° S
Cosmos 1603 3.7 05:15:11 14° NNW 05:20:11 84° WSW 05:25:55 10° SSE
STARLINK 1063 3.6 05:21:14 31° NW 05:22:27 48° NNE 05:25:44 10° E
SKYMED 2 4.3 05:20:12 10° SSW 05:24:04 31° W 05:25:37 25° WNW
STARLINK 1064 3.6 05:23:38 30° NW 05:24:57 50° NNE 05:28:15 10° E
Cosmos 2082 4.3 05:22:29 19° WSW 05:25:48 34° NW 05:30:55 10° NNE
STARLINK 1041 3.5 05:26:21 28° NW 05:27:48 51° NNE 05:31:08 10° E
ALOS 2.3 05:25:49 10° N 05:30:23 53° WNW 05:34:55 10° SSW
STARLINK 1038 3.5 05:28:55 27° NW 05:30:29 53° NNE 05:33:48 10° E
NOAA 6 3.9 05:27:11 10° NNE 05:32:18 76° WNW 05:37:25 10° SSW
METEOR-M 4.1 05:27:11 10° N 05:32:26 58° WNW 05:37:39 10° SSW
STARLINK 1046 3.5 05:31:27 26° NW 05:33:08 55° NNE 05:36:28 10° ESE
Okean 3 4.5 05:30:05 10° N 05:34:08 46° ENE 05:38:10 10° SSE
Meteor 1-18 Rocket 4.1 05:28:56 10° NNW 05:34:31 81° W 05:40:04 10° S
Cosmos 1452 Rocket 3.9 05:29:57 10° S 05:35:10 69° ESE 05:40:27 10° NNE
STARLINK 1039 3.4 05:34:00 24° NW 05:35:48 57° NNE 05:39:08 10° ESE
STARLINK 1045 3.4 05:34:32 24° NW 05:36:21 57° NNE 05:39:42 10° ESE
SJ-7 4.3 05:32:50 10° NNE 05:36:55 82° WNW 05:40:54 10° SSW
Meteor 1-20 Rocket 4.2 05:32:23 10° SSW 05:38:12 71° WNW 05:44:04 10° N
ATLAS 5 CENTAUR R/B 2.9 05:37:31 20° WNW 05:39:19 25° NNW 05:43:27 10° NNE
Cosmos 1371 Rocket 4.4 05:36:06 10° SW 05:40:58 38° WNW 05:45:51 10° N
Cosmos 1850 Rocket 4.3 05:35:52 10° NNW 05:41:15 74° ENE 05:46:35 10° SSE
Cosmos 1484 Rocket 4.2 05:46:32 10° NNW 05:49:18 18° WNW 05:52:02 10° WSW
Cosmos 1602 3.6 05:45:44 10° SSW 05:49:32 68° W 05:53:22 10° N
Cosmos 1140 Rocket 4.4 05:51:01 12° NW 05:54:50 28° W 05:59:11 10° SSW
Cosmos 1515 3.8 05:51:45 10° N 05:55:34 77° E 05:59:23 10° SSE
ATLAS CENTAUR R/B 3.8 05:53:14 10° N 05:55:37 14° NNE 05:57:54 10° ENE
Cosmos 2221 Rocket 3.5 05:52:57 10° NNW 05:57:22 76° W 06:01:46 10° S
Okean 1-7 3.8 05:54:08 10° NNW 05:58:05 33° W 06:02:00 10° SSW
FALCON 9 DEB 2.1 05:56:44 19° WNW 05:58:15 70° SSW 06:00:36 10° SE
USA 234 3.8 05:53:39 10° ENE 05:59:39 40° N 06:05:40 10° WNW
Cosmos 1340 2.6 05:58:41 10° SSW 06:02:25 70° WNW 06:06:12 10° N
STARLINK 1034 2.7 06:03:55 13° WNW 06:06:27 85° SSW 06:09:24 10° ESE
Cosmos 2266 Rocket 4.4 06:01:13 10° N 06:07:31 70° E 06:13:39 10° SSE
Timation 1 Rocket 4.3 06:02:02 10° SSW 06:08:00 84° WNW 06:14:01 10° NNE
STARLINK 1027 2.7 06:05:54 13° WNW 06:08:29 82° SSW 06:11:23 10° ESE
STARLINK 1052 2.7 06:05:56 13° WNW 06:08:32 82° SSW 06:11:29 10° ESE
STARLINK 1028 2.7 06:06:07 13° WNW 06:08:42 81° SSW 06:11:38 10° ESE
STARLINK 1021 2.7 06:06:20 13° WNW 06:08:55 81° SSW 06:11:50 10° ESE
STARLINK 1019 2.7 06:06:31 12° WNW 06:09:09 81° SSW 06:12:07 10° ESE
Okean O Rocket 2.4 06:05:25 10° N 06:09:13 29° WNW 06:13:00 10° SW
STARLINK 1012 2.7 06:06:43 12° WNW 06:09:19 80° SSW 06:12:15 10° ESE
STARLINK 1010 2.7 06:06:58 12° WNW 06:09:35 80° SSW 06:12:30 10° ESE
STARLINK 1026 2.7 06:07:11 12° WNW 06:09:49 79° SSW 06:12:44 10° ESE
STARLINK 1013 2.7 06:07:24 12° WNW 06:10:02 79° SSW 06:12:57 10° SE
STARLINK 1009 2.7 06:07:37 12° WNW 06:10:16 79° SSW 06:13:12 10° SE
STARLINK 1015 2.7 06:07:49 12° WNW 06:10:29 79° SSW 06:13:25 10° SE
Meteor 1-14 Rocket 4.4 06:04:46 10° SSW 06:10:34 57° WNW 06:16:28 10° N
STARLINK 1016 2.7 06:08:03 12° WNW 06:10:43 78° SSW 06:13:39 10° SE
STARLINK 1017 2.7 06:08:13 12° WNW 06:10:53 78° SSW 06:13:49 10° SE
STARLINK 1008 2.7 06:08:17 12° WNW 06:10:57 78° SSW 06:13:52 10° SE
Cosmos 2263 Rocket 2.2 06:05:34 10° SW 06:11:07 64° WNW 06:16:41 10° NNE
STARLINK 1014 2.7 06:08:29 12° WNW 06:11:10 77° SSW 06:14:05 10° SE
STARLINK 1025 2.7 06:08:43 12° WNW 06:11:24 77° SSW 06:14:19 10° SE
STARLINK 1040 2.8 06:08:57 12° WNW 06:11:40 73° SSW 06:14:36 10° SE
STARLINK 1023 2.7 06:09:09 12° WNW 06:11:50 76° SSW 06:14:46 10° SE
STARLINK 1007 2.7 06:09:21 12° WNW 06:12:03 76° SSW 06:14:59 10° SE
STARLINK 1048 2.7 06:09:35 12° WNW 06:12:18 76° SSW 06:15:13 10° SE
STARLINK 1049 2.7 06:09:47 11° WNW 06:12:31 76° SSW 06:15:26 10° SE
STARLINK 1051 2.7 06:10:01 11° WNW 06:12:45 75° SSW 06:15:40 10° SE
STARLINK 1037 2.7 06:10:13 11° WNW 06:12:59 75° SSW 06:15:53 10° SE
STARLINK 1059 2.7 06:10:25 11° WNW 06:13:11 75° SSW 06:16:06 10° SE
STARLINK 1057 2.7 06:10:39 11° WNW 06:13:25 74° SSW 06:16:20 10° SE
Cosmos 2227 4.5 06:08:11 10° SW 06:13:45 49° NW 06:19:22 10° NNE
STARLINK 1068 2.7 06:11:05 11° WNW 06:13:51 74° SSW 06:16:47 10° SE
STARLINK 1029 2.7 06:11:18 11° WNW 06:14:06 73° SSW 06:17:00 10° SE
STARLINK 1060 2.7 06:11:31 11° WNW 06:14:18 73° SSW 06:17:14 10° SE
STARLINK 1030 2.8 06:11:41 11° WNW 06:14:32 73° SSW 06:17:29 10° SE
STARLINK 1020 2.7 06:11:56 11° WNW 06:14:45 72° SSW 06:17:39 10° SE
SAR-Lupe-2 3.6 06:11:43 10° SSE 06:15:17 85° ENE 06:18:55 10° NNW
STARLINK 1033 2.8 06:12:35 11° WNW 06:15:25 71° SSW 06:18:20 10° SE
STARLINK 1031 2.8 06:12:49 11° WNW 06:15:40 71° SSW 06:18:35 10° SE
STARLINK 1024 2.8 06:12:59 11° WNW 06:15:52 71° SSW 06:18:50 10° SE
STARLINK 1035 2.8 06:13:14 10° WNW 06:16:06 70° SSW 06:19:02 10° SE
STARLINK 1032 2.8 06:13:28 10° WNW 06:16:20 70° SSW 06:19:14 10° SE
STARLINK 1011 2.8 06:13:38 10° WNW 06:16:32 70° SSW 06:19:29 10° SE
STARLINK 1036 2.8 06:13:55 10° WNW 06:16:47 69° SSW 06:19:42 10° SE
Radarsat Rocket 4.2 06:10:54 10° N 06:16:48 60° WNW 06:23:16 10° SW
STARLINK 1047 2.8 06:14:21 10° WNW 06:17:15 69° SSW 06:20:09 10° SE
Okean-O 2.9 06:14:51 10° NNE 06:19:18 76° ESE 06:23:43 10° S
ADEOS Rocket 3.4 06:12:23 10° S 06:19:34 67° WSW 06:26:03 10° NNW
CZ-4 R/B 3.0 06:16:12 10° NNE 06:19:49 37° E 06:23:27 10° SSE
Cosmos 1346 Rocket 2.9 06:16:21 10° SSW 06:20:06 48° WNW 06:23:52 10° N
FALCON 9 DEB 3.0 06:18:57 10° WNW 06:21:12 38° SW 06:23:27 10° SE
AQUARIUS 4.2 06:18:45 10° N 06:23:12 61° WNW 06:27:37 10° SSW
Cosmos 2297 Rocket 4.0 06:21:29 10° NW 06:23:29 12° NNW 06:25:30 10° N
Cosmos 1461 4.4 06:21:43 10° WNW 06:24:56 21° WSW 06:28:13 10° SSW
CZ-4B R/B 3.9 06:20:24 10° N 06:25:16 32° WNW 06:30:11 10° SW
STARLINK 1050 3.2 06:22:03 10° WNW 06:25:23 66° SSW 06:28:41 10° SE
